R1ZCU-14 Weather Reports


time (UTC)temp
C
wind
direction
speed
KPH
gust
KPH
rain 1hr
cm
rain 24hr
cm
rain mn
cm
humidity
%
barometer
mb
20260508141537 7 0.0 0.0 0.00 0.00 0.00 38 1017.9
20260508140536 7 0.0 0.0 0.00 0.00 0.00 35 1017.9
20260508135536 7 0.0 0.0 0.00 0.00 0.00 37 1017.9
20260508134535 7 0.0 0.0 0.00 0.00 0.00 37 1017.8
20260508133535 7 0.0 0.0 0.00 0.00 0.00 34 1017.7
20260508132534 7 0.0 0.0 0.00 0.00 0.00 34 1017.7
20260508131534 7 0.0 0.0 0.00 0.00 0.00 34 1017.7
20260508130533 7 0.0 0.0 0.00 0.00 0.00 35 1017.6
20260508125533 7 0.0 0.0 0.00 0.00 0.00 34 1017.7
20260508124532 7 0.0 0.0 0.00 0.00 0.00 34 1017.7
20260508123532 7 0.0 0.0 0.00 0.00 0.00 33 1017.6
20260508122531 7 0.0 0.0 0.00 0.00 0.00 32 1017.4
20260508121531 7 0.0 0.0 0.00 0.00 0.00 32 1017.5
20260508120530 8 0.0 0.0 0.00 0.00 0.00 32 1017.5
20260508115530 8 0.0 0.0 0.00 0.00 0.00 34 1017.4
20260508114529 8 0.0 0.0 0.00 0.00 0.00 36 1017.3
20260508113529 7 0.0 0.0 0.00 0.00 0.00 34 1017.3
20260508112528 7 0.0 0.0 0.00 0.00 0.00 36 1017.3
20260508111528 7 0.0 0.0 0.00 0.00 0.00 36 1017.2
20260508110527 7 0.0 0.0 0.00 0.00 0.00 37 1017.2
20260508105527 7 0.0 0.0 0.00 0.00 0.00 38 1017.1
20260508104526 7 0.0 0.0 0.00 0.00 0.00 41 1017.1
20260508103526 7 0.0 0.0 0.00 0.00 0.00 39 1017.0
20260508102525 8 0.0 0.0 0.00 0.00 0.00 38 1017.0
20260508101525 8 0.0 0.0 0.00 0.00 0.00 38 1016.7
20260508100524 7 0.0 0.0 0.00 0.00 0.00 40 1016.7
20260508095524 7 0.0 0.0 0.00 0.00 0.00 43 1016.7
20260508094523 6 0.0 0.0 0.00 0.00 0.00 43 1016.8
20260508093523 6 0.0 0.0 0.00 0.00 0.00 45 1016.7
20260508092522 6 0.0 0.0 0.00 0.00 0.00 46 1016.6
20260508091522 7 0.0 0.0 0.00 0.00 0.00 42 1016.6
20260508090521 12 0.0 0.0 0.00 0.00 0.00 32 1016.4
20260508085521 13 0.0 0.0 0.00 0.00 0.00 29 1015.5
20260508084520 7 0.0 0.0 0.00 0.00 0.00 45 1016.6
20260508083520 10 0.0 0.0 0.00 0.00 0.00 40 1016.3
20260508082519 7 0.0 0.0 0.00 0.00 0.00 48 1016.2
20260508081519 6 0.0 0.0 0.00 0.00 0.00 52 1016.1
20260508080518 6 0.0 0.0 0.00 0.00 0.00 53 1016.2
20260508075518 5 0.0 0.0 0.00 0.00 0.00 56 1016.3
20260508074517 5 0.0 0.0 0.00 0.00 0.00 60 1016.1
20260508073517 5 0.0 0.0 0.00 0.00 0.00 61 1016.2
20260508072516 5 0.0 0.0 0.00 0.00 0.00 60 1016.1
20260508071516 6 0.0 0.0 0.00 0.00 0.00 59 1016.0
20260508070515 6 0.0 0.0 0.00 0.00 0.00 57 1015.9
20260508065515 6 0.0 0.0 0.00 0.00 0.00 56 1015.8
20260508064514 6 0.0 0.0 0.00 0.00 0.00 57 1015.8
20260508063514 6 0.0 0.0 0.00 0.00 0.00 58 1015.7
20260508062513 7 0.0 0.0 0.00 0.00 0.00 58 1015.7
20260508061513 7 0.0 0.0 0.00 0.00 0.00 54 1015.6
20260508060512 10 0.0 0.0 0.00 0.00 0.00 40 1015.4
20260508055512 7 0.0 0.0 0.00 0.00 0.00 55 1014.7
20260508054511 6 0.0 0.0 0.00 0.00 0.00 58 1015.4
20260508053511 6 0.0 0.0 0.00 0.00 0.00 60 1015.2
20260508052510 6 0.0 0.0 0.00 0.00 0.00 58 1015.2
20260508051510 6 0.0 0.0 0.00 0.00 0.00 61 1015.2
20260508050509 7 0.0 0.0 0.00 0.00 0.00 56 1014.9
20260508045509 8 0.0 0.0 0.00 0.00 0.00 48 1015.0
20260508044508 8 0.0 0.0 0.00 0.00 0.00 47 1015.0
20260508043508 7 0.0 0.0 0.00 0.00 0.00 54 1014.2
20260508042507 7 0.0 0.0 0.00 0.00 0.00 57 1014.8
20260508041507 7 0.0 0.0 0.00 0.00 0.00 56 1014.3
20260508040506 8 0.0 0.0 0.00 0.00 0.00 53 1014.4
20260508035506 8 0.0 0.0 0.00 0.00 0.00 54 1014.1
20260508034505 8 0.0 0.0 0.00 0.00 0.00 55 1014.1
20260508033505 8 0.0 0.0 0.00 0.00 0.00 58 1014.0
20260508032504 7 0.0 0.0 0.00 0.00 0.00 60 1014.0
20260508031504 8 0.0 0.0 0.00 0.00 0.00 58 1013.9
20260508030503 8 0.0 0.0 0.00 0.00 0.00 59 1013.9
20260508025503 8 0.0 0.0 0.00 0.00 0.00 61 1013.8
20260508024502 8 0.0 0.0 0.00 0.00 0.00 62 1013.8
20260508023502 7 0.0 0.0 0.00 0.00 0.00 64 1013.7
20260508022501 8 0.0 0.0 0.00 0.00 0.00 64 1013.7
20260508021501 7 0.0 0.0 0.00 0.00 0.00 66 1013.6
20260508020500 7 0.0 0.0 0.00 0.00 0.00 69 1013.6
20260508015500 7 0.0 0.0 0.00 0.00 0.00 74 1013.6
20260508014459 6 0.0 0.0 0.00 0.00 0.00 86 1013.6
20260508013459 3 0.0 0.0 0.00 0.00 0.00 1013.6
20260508012458 3 0.0 0.0 0.00 0.00 0.00 1013.7
20260508011458 3 0.0 0.0 0.00 0.00 0.00 1013.7
20260508010457 3 0.0 0.0 0.00 0.00 0.00 1013.5
20260508005457 1 0.0 0.0 0.00 0.00 0.00 1013.6
20260508004456 0 0.0 0.0 0.00 0.00 0.00 1013.7
20260508003456 0 0.0 0.0 0.00 0.00 0.00 1013.8
20260508002455 0 0.0 0.0 0.00 0.00 0.00 1013.7
20260508001455 0 0.0 0.0 0.00 0.00 0.00 1013.6
20260508000457 0 0.0 0.0 0.00 0.00 0.00 1013.6
20260507235454 0 0.0 0.0 0.00 0.00 0.00 1013.4
20260507234453 0 0.0 0.0 0.00 0.00 0.00 1013.4
20260507233453 0 0.0 0.0 0.00 0.00 0.00 1013.4
20260507232452 0 0.0 0.0 0.00 0.00 0.00 1013.3
20260507231452 0 0.0 0.0 0.00 0.00 0.00 1013.2
20260507230452 0 0.0 0.0 0.00 0.00 0.00 1013.2
20260507225451 1 0.0 0.0 0.00 0.00 0.00 1013.1
20260507224451 1 0.0 0.0 0.00 0.00 0.00 1013.1
20260507223450 1 0.0 0.0 0.00 0.00 0.00 1013.0
20260507222450 1 0.0 0.0 0.00 0.00 0.00 1012.9
20260507221449 1 0.0 0.0 0.00 0.00 0.00 1012.8
20260507220449 1 0.0 0.0 0.00 0.00 0.00 1012.8
20260507215448 1 0.0 0.0 0.00 0.00 0.00 1012.6
20260507214448 1 0.0 0.0 0.00 0.00 0.00 1012.7
20260507213447 1 0.0 0.0 0.00 0.00 0.00 1012.6
20260507212446 1 0.0 0.0 0.00 0.00 0.00 1012.5
20260507211446 1 0.0 0.0 0.00 0.00 0.00 1012.5
20260507210446 1 0.0 0.0 0.00 0.00 0.00 1012.4
20260507205445 1 0.0 0.0 0.00 0.00 0.00 1012.4
20260507204445 2 0.0 0.0 0.00 0.00 0.00 1012.4
20260507203444 2 0.0 0.0 0.00 0.00 0.00 99 1012.3
20260507202444 2 0.0 0.0 0.00 0.00 0.00 97 1012.2
20260507201443 2 0.0 0.0 0.00 0.00 0.00 97 1012.1
20260507200443 2 0.0 0.0 0.00 0.00 0.00 99 1012.0
20260507195442 2 0.0 0.0 0.00 0.00 0.00 98 1011.9
20260507194442 2 0.0 0.0 0.00 0.00 0.00 96 1011.8
20260507193441 2 0.0 0.0 0.00 0.00 0.00 93 1011.8
20260507192441 2 0.0 0.0 0.00 0.00 0.00 90 1011.7
20260507191440 2 0.0 0.0 0.00 0.00 0.00 86 1011.6
20260507190440 3 0.0 0.0 0.00 0.00 0.00 83 1011.5
20260507185439 3 0.0 0.0 0.00 0.00 0.00 77 1011.5
20260507184439 3 0.0 0.0 0.00 0.00 0.00 73 1011.3
20260507183438 4 0.0 0.0 0.00 0.00 0.00 72 1011.1
20260507182438 4 0.0 0.0 0.00 0.00 0.00 73 1011.0
20260507181437 4 0.0 0.0 0.00 0.00 0.00 70 1011.0
20260507180437 5 0.0 0.0 0.00 0.00 0.00 67 1010.8
20260507175436 5 0.0 0.0 0.00 0.00 0.00 60 1010.8
20260507174436 5 0.0 0.0 0.00 0.00 0.00 60 1010.7
20260507173435 5 0.0 0.0 0.00 0.00 0.00 60 1010.7
20260507172435 5 0.0 0.0 0.00 0.00 0.00 60 1010.6
20260507171434 5 0.0 0.0 0.00 0.00 0.00 61 1010.5
20260507170434 5 0.0 0.0 0.00 0.00 0.00 63 1010.5
20260507165433 5 0.0 0.0 0.00 0.00 0.00 62 1010.4
20260507164433 5 0.0 0.0 0.00 0.00 0.00 58 1010.4
20260507163432 5 0.0 0.0 0.00 0.00 0.00 58 1010.3
20260507162432 5 0.0 0.0 0.00 0.00 0.00 60 1010.3
20260507161431 5 0.0 0.0 0.00 0.00 0.00 58 1010.3
20260507160431 5 0.0 0.0 0.00 0.00 0.00 58 1010.2
20260507155430 5 0.0 0.0 0.00 0.00 0.00 60 1010.2
20260507154430 5 0.0 0.0 0.00 0.00 0.00 61 1010.2
20260507153429 5 0.0 0.0 0.00 0.00 0.00 61 1010.3
20260507152429 5 0.0 0.0 0.00 0.00 0.00 60 1010.2
20260507151428 5 0.0 0.0 0.00 0.00 0.00 59 1010.2
20260507150428 5 0.0 0.0 0.00 0.00 0.00 55 1009.9
20260507145427 5 0.0 0.0 0.00 0.00 0.00 53 1009.9
20260507144427 6 0.0 0.0 0.00 0.00 0.00 49 1009.8
20260507143426 6 0.0 0.0 0.00 0.00 0.00 48 1009.7
20260507142426 6 0.0 0.0 0.00 0.00 0.00 48 1009.8